Weather Roundup
Issued by NWS Chicago, IL

Home | Current Version | Previous Version | Graphics & Text | Print | Product List | Glossary On
Versions: 1 2 3 4 5 6 7 8 9 10 11 12 13 14 15 16 17 18 19 20 21 22 23 24 25 26 27 28 29 30 31 32 33 34 35 36 37 38 39 40 41 42 43 44 45 46 47 48 49 50
063
NZUS59 KLOT 120008
HRRLOT

CHICAGO AREA WEATHER ROUNDUP
NATIONAL WEATHER SERVICE CHICAGO/ROMEOVILLE IL
600 PM CST THU FEB 11 2016

NOTE: "FAIR" INDICATES FEW OR NO CLOUDS BELOW 12,000 FEET WITH NO
SIGNIFICANT WEATHER AND/OR OBSTRUCTIONS TO VISIBILITY.

* THESE STATIONS ARE NOT UNDER NWS QUALITY CONTROL. THEY ALSO MAY NOT
  REPORT WEATHER SUCH AS PRECIPITATION OR FOG.

ILZ005-006-012>014-019>023-120100-
NORTHEAST ILLINOIS

CITY           SKY/WX    TMP DP  RH WIND       PRES   REMARKS
OHARE          PTCLDY    18   3  52 W6        30.27S WCI  10
6HR MIN TEMP:  16; 6HR MAX TEMP:  21;

MIDWAY         PTCLDY    20  -1  40 W5        30.28F WCI  13
6HR MIN TEMP:  18; 6HR MAX TEMP:  24;

AURORA         CLEAR     20   6  55 CALM      30.29R
6HR MIN TEMP:  18; 6HR MAX TEMP:  22;

LANSING*       CLEAR     19   2  46 W5        30.29S WCI  13
JOLIET*        CLEAR     22   5  48 CALM      30.30S
WAUKEGAN       CLEAR     16   2  54 CALM      30.26F
6HR MIN TEMP:  16; 6HR MAX TEMP:  20;

DUPAGE AIRPORT CLEAR     17   3  54 W5        30.27S WCI  10
6HR MIN TEMP:  17; 6HR MAX TEMP:  21;

WHEELING       CLEAR     19   1  45 W3        30.29S
6HR MIN TEMP:  17; 6HR MAX TEMP:  22;

KANKAKEE*      CLEAR     19   7  57 SW5       30.31S WCI  13
MORRIS*        CLEAR     21   7  53 CALM      30.28R
LEWIS AIRPORT* CLEAR     19   7  58 W5        30.29S WCI  12
$$

WIZ051-052-058>065-066-070>072-120100-
SOUTHEAST WISCONSIN

CITY           SKY/WX    TMP DP  RH WIND       PRES   REMARKS
MILWAUKEE      PTCLDY    17   0  47 SW6       30.26S WCI   9
6HR MIN TEMP:  16; 6HR MAX TEMP:  19;

KENOSHA*       CLEAR     16   2  54 SW6       30.26S WCI   7
RACINE*        CLEAR     16   0  49 CALM      30.27F
BURLINGTON     CLEAR     11   0  61 CALM      30.25F
WAUKESHA       CLEAR     12  -2  52 SW6       30.25S WCI   3
WEST BEND      CLEAR     14   0  52 CALM      30.22F
$$

INZ001>003-010>013-019-020-120100-
NORTHWEST INDIANA

CITY           SKY/WX    TMP DP  RH WIND       PRES   REMARKS
GARY*          PTCLDY    19   5  53 MISG      30.30S
MICHIGAN CITY* NOT AVBL
RENSSELAER*    NOT AVBL
VALPARAISO     CLEAR     15   6  67 E5        30.29S WCI   8
$$

LMZ740>746-120100-
SOUTHERN LAKE MICHIGAN

STATION/POSITION TIME  SKY/WX   TEMP WIND        PRES    VSBY
                                AIR  DIR/SP/G
                 (UTC)          (F)  (DEG/KT/KT) (MB)    (MI)
HARRISON CRIB    2300            21  120/  4/  5   N/A
BURNHAM HARBOR   0000            19  120/  3/  5   N/A
CALUMET HARBOR   2300            20   70/  3/  5 1025.0R
BURNS HARBOR     2300            20   CALM  /  3 1026.4S
MICHIGAN CITY    2300            19  260/  4/  5   N/A
$$

ABBREVIATIONS USED IN REMARKS
   TC - TEMPERATURE IN CELSIUS
  WCI - WIND CHILL INDEX
   HX - HEAT INDEX
  VSB - VISIBILITY
$$




USA.gov is the U.S. government's official web portal to all federal, state and local government web resources and services.